[Date Prev][Date Next][Thread Prev][Thread Next] - [Date Index][Thread Index][Author Index]
2 Line ISS Keps 12-10
- Subject: [sarex] 2 Line ISS Keps 12-10
- From: "Dave Larsen PhD" <doc@xxxxxxxxxxx>
- Date: Fri, 9 Dec 2005 18:45:25 -0800
ISS
1 25544U 98067A 05343.94236111 .00013568 00000-0 10198-3 0 9155
2 25544 051.6443 080.1359 0009539 023.8816 128.3362 15.72877211403345
----
Via the sarex mailing list at AMSAT.ORG courtesy of AMSAT-NA.
To unsubscribe, send "unsubscribe sarex" to Majordomo@amsat.org
AMSAT Home